GW4034 Weather Reports


Display with metric or nautical units.
time (UTC)temp
F
wind
direction
speed
MPH
gust
MPH
rain 1hr
in
rain 24hr
in
rain mn
in
humidity
%
barometer
mb
20260502205919 60 255 2.0 2.0 0.00 0.05 0.05 42 1014.1
20260502205415 61 307 1.0 2.0 0.00 0.05 0.05 43 1014.1
20260502204913 60 187 1.0 2.0 0.00 0.05 0.05 43 1013.9
20260502204409 60 324 2.0 3.0 0.00 0.05 0.05 43 1014.1
20260502203908 60 179 1.0 1.0 0.00 0.05 0.05 44 1014.2
20260502203405 60 347 2.0 3.0 0.00 0.05 0.05 42 1014.5
20260502202900 62 164 1.0 1.0 0.00 0.05 0.05 48 1014.3
20260502202358 62 94 1.0 2.0 0.00 0.05 0.05 43 1014.4
20260502201855 62 110 1.0 1.0 0.00 0.05 0.05 43 1014.3
20260502201351 61 31 2.0 3.0 0.00 0.05 0.05 46 1014.5
20260502200848 59 209 0.0 1.0 0.00 0.05 0.05 45 1014.5
20260502200343 59 177 0.0 1.0 0.00 0.05 0.05 56 1014.5
20260502195842 59 148 2.0 2.0 0.00 0.05 0.05 55 1014.5
20260502195338 59 357 1.0 2.0 0.00 0.05 0.05 55 1014.7
20260502194835 59 13 2.0 2.0 0.00 0.05 0.05 52 1014.7
20260502194332 59 248 2.0 2.0 0.00 0.05 0.05 51 1014.9
20260502193828 58 171 0.0 0.0 0.00 0.05 0.05 59 1014.9
20260502193325 59 172 0.0 1.0 0.00 0.05 0.05 56 1015.1
20260502192820 59 172 0.0 0.0 0.00 0.05 0.05 57 1015.0
20260502192318 59 347 2.0 2.0 0.00 0.05 0.05 56 1015.2
20260502191815 59 182 0.0 0.0 0.00 0.05 0.05 60 1014.9
20260502191313 59 171 1.0 1.0 0.00 0.05 0.05 57 1015.2
20260502190810 59 150 0.0 1.0 0.00 0.05 0.05 60 1015.2
20260502190307 60 69 0.0 0.0 0.00 0.05 0.05 58 1015.1
20260502185802 59 256 2.0 3.0 0.00 0.05 0.05 59 1015.4
20260502185258 59 161 0.0 0.0 0.00 0.05 0.05 62 1015.4
20260502184755 59 140 0.0 0.0 0.00 0.05 0.05 62 1015.3
20260502184251 59 179 2.0 2.0 0.00 0.05 0.05 62 1015.5
20260502183748 58 283 2.0 3.0 0.00 0.05 0.05 63 1015.6
20260502183245 57 161 0.0 1.0 0.00 0.05 0.05 63 1015.4
20260502182740 57 88 1.0 1.0 0.00 0.05 0.05 64 1015.5
20260502182235 59 107 2.0 3.0 0.00 0.05 0.05 61 1015.7
20260502181732 59 191 0.0 0.0 0.00 0.05 0.05 56 1015.6
20260502181231 59 191 1.0 1.0 0.00 0.05 0.05 54 1015.5
20260502180728 58 137 2.0 3.0 0.00 0.05 0.05 55 1015.5
20260502180225 58 228 4.0 4.0 0.00 0.05 0.05 55 1015.5
20260502170150 57 282 1.0 2.0 0.00 0.05 0.05 61 1016.0
20260502164136 57 236 4.0 6.0 0.00 0.05 0.05 63 1016.0
20260502163632 59 209 2.0 3.0 0.00 0.05 0.05 61 1016.1
20260502163129 59 12 2.0 4.0 0.00 0.05 0.05 61 1015.9
20260502162626 58 264 1.0 2.0 0.00 0.05 0.05 61 1016.1
20260502162123 57 195 1.0 1.0 0.00 0.05 0.05 62 1016.1
20260502161620 57 213 2.0 3.0 0.00 0.05 0.05 64 1016.0
20260502161117 58 246 2.0 3.0 0.00 0.05 0.05 63 1016.0
20260502160615 57 270 2.0 2.0 0.00 0.05 0.05 68 1016.2
20260502160113 57 201 0.0 1.0 0.00 0.05 0.05 66 1016.5
20260502152022 54 185 0.0 0.0 0.00 0.05 0.05 74 1016.4
20260502151519 54 354 2.0 2.0 0.00 0.05 0.05 73 1016.4
20260502151016 55 211 2.0 2.0 0.00 0.05 0.05 72 1016.4
20260502150514 55 251 2.0 2.0 0.00 0.05 0.05 72 1016.5
20260502130352 52 191 0.0 0.0 0.00 0.05 0.05 83 1016.9
20260502123335 51 187 0.0 0.0 0.00 0.05 0.05 87 1016.8
20260502122832 51 152 0.0 0.0 0.00 0.05 0.05 88 1016.9
20260502122327 51 154 0.0 0.0 0.00 0.05 0.05 89 1016.8
20260502121826 50 154 0.0 0.0 0.00 0.05 0.05 89 1016.6
20260502121323 50 154 0.0 0.0 0.00 0.05 0.05 89 1016.6
20260502120820 50 157 0.0 0.0 0.00 0.05 0.05 89 1016.6
20260502120316 50 157 0.0 0.0 0.00 0.05 0.05 89 1016.7
20260502115814 50 135 1.0 1.0 0.00 0.05 0.05 89 1016.7
20260502115311 50 158 0.0 0.0 0.00 0.05 0.05 89 1016.7
20260502114808 50 159 0.0 0.0 0.00 0.05 0.05 90 1016.4
20260502114304 50 151 0.0 1.0 0.00 0.05 0.05 90 1016.6
20260502113801 50 161 0.0 0.0 0.00 0.05 0.05 90 1016.8
20260502113259 50 161 0.0 0.0 0.00 0.05 0.05 90 1016.7
20260502112757 50 168 0.0 0.0 0.00 0.05 0.05 90 1016.7
20260502112254 50 168 0.0 0.0 0.00 0.05 0.05 91 1016.8
20260502111751 50 168 0.0 0.0 0.00 0.05 0.05 91 1016.6
20260502111249 50 168 0.0 0.0 0.00 0.05 0.05 92 1016.3
20260502110746 50 168 0.0 0.0 0.00 0.05 0.05 92 1016.3
20260502110244 48 169 0.0 0.0 0.00 0.05 0.05 92 1016.3
20260502105742 48 169 0.0 0.0 0.00 0.05 0.05 92 1016.1
20260502105237 48 169 0.0 0.0 0.00 0.05 0.05 92 1016.3
20260502104736 48 169 0.0 0.0 0.00 0.05 0.05 91 1016.3
20260502104233 48 170 0.0 0.0 0.00 0.05 0.05 91 1016.0
20260502103731 48 190 0.0 0.0 0.00 0.05 0.05 91 1016.2
20260502103228 48 160 0.0 0.0 0.07 0.05 0.05 91 1015.9
20260502102725 49 145 0.0 0.0 0.12 0.05 0.05 91 1015.6
20260502102221 49 155 0.0 0.0 0.12 0.04 0.04 90 1015.9
20260502101719 49 133 0.0 0.0 0.12 0.03 0.03 90 1016.0
20260502101217 49 168 0.0 0.0 0.12 0.02 0.02 89 1016.4
20260502100715 49 169 0.0 0.0 0.07 0.01 0.01 88 1016.3
20260502100213 49 169 0.0 0.0 0.00 0.00 0.00 88 1016.5
20260502091147 48 166 0.0 0.0 0.00 0.00 0.00 91 1015.7
20260502090644 48 160 0.0 0.0 0.00 0.00 0.00 91 1016.0
20260502090142 48 164 0.0 0.0 0.00 0.00 0.00 91 1016.0
20260502080104 48 201 0.0 0.0 0.00 0.00 0.00 90 1015.4
20260502071533 48 118 0.0 1.0 0.00 0.00 0.00 90 1015.8
20260502071031 48 230 1.0 1.0 0.00 0.00 0.00 90 1016.1
20260502070529 48 170 0.0 0.0 0.00 0.00 0.00 90 1015.9
20260502070027 48 170 0.0 0.0 0.00 0.00 0.00 90 1016.0
20260502065525 48 170 0.0 0.0 0.00 0.00 0.00 90 1015.9
20260502065023 48 170 0.0 0.0 0.00 0.00 0.00 90 1016.0
20260502064521 47 170 0.0 0.0 0.00 0.00 0.00 90 1016.1
20260502064018 47 170 0.0 0.0 0.00 0.00 0.00 89 1016.1
20260502063515 47 170 0.0 0.0 0.00 0.00 0.00 89 1015.9
20260502063013 47 170 0.0 0.0 0.00 0.00 0.00 89 1015.8
20260502062509 47 170 0.0 0.0 0.00 0.00 0.00 89 1015.9
20260502062008 47 170 0.0 0.0 0.00 0.00 0.00 89 1016.0
20260502061506 48 170 0.0 0.0 0.00 0.00 0.00 88 1015.9
20260502061003 48 166 0.0 0.0 0.00 0.00 0.00 88 1016.0
20260502060458 48 165 0.0 0.0 0.00 0.00 0.00 88 1016.1
20260502055955 48 165 0.0 0.0 0.00 0.00 0.00 88 1016.1
20260502055453 48 165 0.0 0.0 0.00 0.00 0.00 87 1016.3
20260502054952 48 173 0.0 0.0 0.00 0.00 0.00 87 1016.2
20260502054449 48 166 0.0 0.0 0.00 0.00 0.00 87 1016.2
20260502053946 49 165 0.0 0.0 0.00 0.00 0.00 87 1016.2
20260502053443 48 187 0.0 0.0 0.00 0.00 0.00 87 1016.4
20260502052941 48 163 0.0 0.0 0.00 0.00 0.00 87 1016.3
20260502052439 49 162 0.0 0.0 0.00 0.00 0.00 86 1016.2
20260502051938 49 170 0.0 0.0 0.00 0.00 0.00 86 1016.4
20260502051435 49 197 0.0 0.0 0.00 0.00 0.00 86 1016.3
20260502050932 49 194 0.0 0.0 0.00 0.00 0.00 86 1016.3
20260502050423 49 193 0.0 0.0 0.00 0.00 0.00 86 1016.1
20260502045921 49 200 1.0 1.0 0.00 0.00 0.00 86 1016.2
20260502045417 50 182 0.0 0.0 0.00 0.00 0.00 86 1016.3
20260502044914 49 182 0.0 0.0 0.00 0.00 0.00 86 1016.4
20260502044409 49 182 0.0 0.0 0.00 0.00 0.00 85 1016.5
20260502043907 49 182 0.0 0.0 0.00 0.00 0.00 85 1016.2
20260502043405 48 182 0.0 0.0 0.00 0.00 0.00 85 1016.3
20260502042904 48 182 0.0 0.0 0.00 0.00 0.00 85 1016.6
20260502042402 48 182 0.0 0.0 0.00 0.00 0.00 85 1016.8
20260502041859 48 181 0.0 0.0 0.00 0.00 0.00 85 1016.7
20260502041356 48 181 0.0 0.0 0.00 0.00 0.00 85 1016.4
20260502040853 48 201 0.0 0.0 0.00 0.00 0.00 85 1016.5
20260502040350 48 200 0.0 0.0 0.00 0.00 0.00 85 1016.5
20260502035846 48 200 0.0 0.0 0.00 0.00 0.00 85 1016.7
20260502035343 48 201 0.0 0.0 0.00 0.00 0.00 85 1016.6
20260502034840 48 214 0.0 1.0 0.00 0.00 0.00 85 1016.6
20260502034338 48 195 0.0 0.0 0.00 0.00 0.00 84 1016.3
20260502033837 48 196 0.0 0.0 0.00 0.00 0.00 84 1016.5
20260502033334 48 196 0.0 0.0 0.00 0.00 0.00 84 1016.4
20260502032830 48 196 0.0 0.0 0.00 0.00 0.00 84 1016.2
20260502032326 48 196 0.0 0.0 0.00 0.00 0.00 84 1016.7
20260502031824 48 195 0.0 0.0 0.00 0.00 0.00 84 1016.5
20260502031322 48 196 0.0 0.0 0.00 0.00 0.00 84 1017.0
20260502030821 48 197 0.0 0.0 0.00 0.00 0.00 84 1016.8
20260502030318 47 183 0.0 0.0 0.00 0.00 0.00 84 1016.6
20260502025815 47 182 0.0 0.0 0.00 0.00 0.00 83 1016.7
20260502025313 47 182 0.0 0.0 0.00 0.00 0.00 83 1016.7
20260502024811 48 182 0.0 0.0 0.00 0.00 0.00 83 1017.0
20260502024308 48 183 0.0 0.0 0.00 0.00 0.00 82 1016.9
20260502023806 48 184 0.0 0.0 0.00 0.00 0.00 82 1016.9
20260502023304 48 181 0.0 0.0 0.00 0.00 0.00 81 1016.9
20260502022801 49 174 0.0 0.0 0.00 0.00 0.00 80 1016.6
20260502022257 49 210 1.0 1.0 0.00 0.00 0.00 80 1017.0
20260502021754 49 169 0.0 0.0 0.00 0.00 0.00 79 1016.8
20260502021251 50 169 0.0 0.0 0.00 0.00 0.00 78 1016.8
20260502020749 50 168 0.0 0.0 0.00 0.00 0.00 77 1016.8
20260502020246 50 166 0.0 0.0 0.00 0.00 0.00 77 1016.9
20260502015744 50 186 0.0 0.0 0.00 0.00 0.00 77 1016.8
20260502015240 50 155 0.0 0.0 0.00 0.00 0.00 76 1016.9
20260502014737 51 141 0.0 0.0 0.00 0.00 0.00 75 1017.0
20260502014234 51 227 0.0 1.0 0.00 0.00 0.00 74 1016.9
20260502013730 51 237 1.0 2.0 0.00 0.00 0.00 74 1016.6
20260502013226 51 191 0.0 0.0 0.00 0.00 0.00 75 1016.6
20260502012723 51 190 0.0 0.0 0.00 0.00 0.00 74 1016.5
20260502012221 51 216 0.0 1.0 0.00 0.00 0.00 73 1016.6
20260502011717 52 167 0.0 0.0 0.00 0.00 0.00 72 1016.2
20260502011213 52 180 0.0 0.0 0.00 0.00 0.00 72 1016.5
20260502010712 52 212 1.0 1.0 0.00 0.00 0.00 72 1016.3
20260502010207 52 156 0.0 0.0 0.00 0.00 0.00 72 1016.4
20260502005705 53 162 0.0 0.0 0.00 0.00 0.00 71 1016.2
20260502005202 53 165 0.0 0.0 0.00 0.00 0.00 70 1016.2
20260502004658 53 154 0.0 1.0 0.00 0.00 0.00 70 1016.5
20260502004154 54 178 0.0 0.0 0.00 0.00 0.00 69 1016.1
20260502003652 54 177 0.0 0.0 0.00 0.00 0.00 69 1016.2
20260502003149 54 166 0.0 1.0 0.00 0.00 0.00 69 1016.1
20260502002645 54 181 1.0 1.0 0.00 0.00 0.00 69 1016.0
20260502002144 54 183 1.0 1.0 0.00 0.00 0.00 68 1015.9
20260502001641 54 195 1.0 1.0 0.00 0.00 0.00 68 1016.0
20260502001138 54 202 1.0 2.0 0.00 0.00 0.00 68 1015.9
20260502000636 54 154 1.0 1.0 0.00 0.00 0.00 69 1015.8
20260502000133 54 205 0.0 1.0 0.00 0.00 0.00 68 1015.6
20260501235629 54 246 2.0 3.0 0.00 0.00 0.00 67 1015.6
20260501235125 55 184 1.0 1.0 0.00 0.00 0.00 67 1015.8
20260501234621 54 224 1.0 1.0 0.00 0.00 0.00 67 1015.7
20260501234118 55 165 1.0 1.0 0.00 0.00 0.00 66 1015.8
20260501233617 55 195 1.0 1.0 0.00 0.00 0.00 66 1015.5
20260501233114 55 205 1.0 2.0 0.00 0.00 0.00 65 1015.5
20260501232609 55 171 0.0 1.0 0.00 0.00 0.00 64 1015.4
20260501232107 55 198 1.0 2.0 0.00 0.00 0.00 64 1015.2
20260501231604 55 180 1.0 2.0 0.00 0.00 0.00 63 1015.5
20260501231103 56 177 0.0 1.0 0.00 0.00 0.00 64 1015.3
20260501230601 55 173 1.0 1.0 0.00 0.00 0.00 63 1015.4
20260501230059 56 230 1.0 1.0 0.00 0.00 0.00 63 1015.2
20260501225556 56 161 1.0 1.0 0.00 0.00 0.00 62 1015.1
20260501225052 56 161 1.0 2.0 0.00 0.00 0.00 62 1015.3
20260501224550 57 171 0.0 1.0 0.00 0.00 0.00 61 1015.3
20260501224046 58 170 1.0 2.0 0.00 0.00 0.00 60 1015.1
20260501223543 58 188 1.0 2.0 0.00 0.00 0.00 60 1015.0
20260501223039 58 172 2.0 3.0 0.00 0.00 0.00 58 1015.2
20260501222536 58 186 2.0 2.0 0.00 0.00 0.00 58 1015.0
20260501222033 58 184 2.0 2.0 0.00 0.00 0.00 59 1015.1
20260501221529 59 191 6.0 9.0 0.00 0.00 0.00 57 1015.3
20260501221027 58 209 5.0 8.0 0.00 0.00 0.00 57 1015.1
20260501220524 59 208 2.0 2.0 0.00 0.00 0.00 56 1015.2
20260501220020 60 190 6.0 7.0 0.00 0.00 0.00 54 1015.1
20260501215516 60 154 4.0 6.0 0.00 0.00 0.00 54 1015.2
20260501215012 61 172 0.0 1.0 0.00 0.00 0.00 55 1015.1
20260501214508 61 163 2.0 3.0 0.00 0.00 0.00 53 1015.0
20260501214004 62 275 3.0 4.0 0.00 0.00 0.00 52 1014.8
20260501213501 61 185 2.0 2.0 0.00 0.00 0.00 52 1014.9
20260501213001 62 185 1.0 2.0 0.00 0.00 0.00 50 1014.8
20260501212458 62 157 2.0 2.0 0.00 0.00 0.00 50 1014.6
20260501211955 63 140 4.0 6.0 0.00 0.00 0.00 49 1014.5
20260501211453 64 167 2.0 2.0 0.00 0.00 0.00 49 1014.5
20260501210950 63 167 1.0 1.0 0.00 0.00 0.00 49 1014.6
20260501210446 63 171 2.0 3.0 0.00 0.00 0.00 48 1014.5